Tracking 31027 objects as of 19-Jul-2025
HD Live streaming from Space Station
objects crossing your sky now

FENGYUN 1C DEB

Track FENGYUN 1C DEB now!
10-day predictions


NORAD ID: 30492
Int'l Code: 1999-025AHE
Perigee: 667.9 km
Apogee: 823.8 km
Inclination: 102.3 °
Period: 99.6 minutes
Semi major axis: 7116 km
RCS: 0.0164 m2 (small)
Launch date: May 10, 1999
Source: People's Republic of China (PRC)
Launch site: Taiyaun Space Center, China (TSC)

Note: This is SATELLITE DEBRIS
Your satellite tracking list
COSMOS 1743
Track 1 satellite(s)




NASA's NSSDC Master Catalog

Two Line Element Set (TLE):
1 30492U 99025AHE 25199.56502134  .00011916  00000-0  31198-2 0  9997
2 30492 102.3258 149.8056 0109549  90.5401 270.8330 14.46015912947636
Source of the keplerian elements: AFSPC